Change the Weather History Date:

Sunday, September 22, 2013

  Actual Average (KBMQ) Record (KBMQ)
Temperature  
Mean Temperature 68 °F -  
Max Temperature 83 °F 84 °F 97 °F (2005)
Min Temperature 53 °F 63 °F 54 °F (1999)
Cooling Degree Days 3    
Growing Degree Days 18 (Base 50)    
Moisture  
Dew Point 50 °F    
Average Humidity 58    
Maximum Humidity 100    
Minimum Humidity 25    
Precipitation  
Precipitation 0.00 in - - ()
Sea Level Pressure  
Sea Level Pressure 29.87 in    
Wind  
Wind Speed 2 mph (ENE)    
Max Wind Speed 8 mph    
Max Gust Speed -    
Visibility 10 miles    
Events      
Averages and records for this station are not official NWS values.
T = Trace of Precipitation, MM = Missing Value Source: NWS Daily Summary

Daily Weather History Graph

Daily Weather History Graph

Search for Another Location

Airport or City:

Trip Planner

Search our weather history database for the weather conditions in past years. The results will help you decide how hot, cold, wet, or windy it might be!

Date:

Astronomy

Sep. 22, 2013 Rise Set
Actual Time 6:21 AM MDT 6:29 PM MDT
Civil Twilight 5:57 AM MDT 6:53 PM MDT
Nautical Twilight 5:29 AM MDT 7:21 PM MDT
Astronomical Twilight 5:01 AM MDT 7:49 PM MDT
Moon 8:37 PM MDT (9/22) 9:27 AM MDT (9/22)
Length of Visible Light 12h 55m
Length of Day
12h 07m
Waning Gibbous, 88% of the Moon is Illuminated
Sep 22
Waning Gibbous
Sep 26
Last Quarter
Oct 4
New
Oct 11
First Quarter
Oct 18
Full

Hourly Weather History & Observations

Time (MDT) Temp. Dew Point Humidity Pressure Visibility Wind Dir Wind Speed Gust Speed Precip Events Conditions
12:15 AM 57.2 °F 54.5 °F 91% 29.91 in 10.0 mi Calm Calm - N/A   Clear
12:35 AM 57.2 °F 54.5 °F 91% 29.91 in 10.0 mi Calm Calm - N/A   Clear
12:55 AM 56.8 °F 53.6 °F 89% 29.90 in 10.0 mi South 3.5 mph - N/A   Clear
1:15 AM 56.7 °F 53.1 °F 88% 29.91 in 10.0 mi South 3.5 mph - N/A   Clear
1:35 AM 56.5 °F 53.6 °F 90% 29.90 in 10.0 mi Calm Calm - N/A   Clear
1:55 AM 56.3 °F 53.2 °F 89% 29.90 in 10.0 mi Calm Calm - N/A   Clear
2:15 AM 56.1 °F 53.6 °F 91% 29.90 in 10.0 mi Calm Calm - N/A   Clear
2:35 AM 55.8 °F 53.4 °F 92% 29.89 in 10.0 mi South 3.5 mph - N/A   Clear
2:55 AM 55.4 °F 53.1 °F 92% 29.88 in 10.0 mi Calm Calm - N/A   Clear
3:15 AM 55.4 °F 53.8 °F 94% 29.88 in 10.0 mi Calm Calm - N/A   Clear
3:35 AM 55.2 °F 53.1 °F 92% 29.88 in 10.0 mi Calm Calm - N/A   Clear
3:55 AM 55.4 °F 52.7 °F 91% 29.88 in 10.0 mi Calm Calm - N/A   Clear
4:15 AM 55.4 °F 52.9 °F 91% 29.89 in 10.0 mi Calm Calm - N/A   Clear
4:35 AM 58.8 °F 49.6 °F 72% 29.90 in 10.0 mi West 3.5 mph - N/A   Clear
4:55 AM 56.8 °F 50.0 °F 78% 29.90 in 10.0 mi Calm Calm - N/A   Clear
5:15 AM 55.6 °F 51.1 °F 85% 29.90 in 10.0 mi Calm Calm - N/A   Clear
5:35 AM 54.5 °F 52.3 °F 92% 29.90 in 10.0 mi Calm Calm - N/A   Clear
5:55 AM 54.1 °F 53.8 °F 99% 29.90 in 10.0 mi Calm Calm - N/A   Clear
6:15 AM 53.6 °F 53.6 °F 100% 29.90 in 10.0 mi Calm Calm - N/A   Clear
6:35 AM 53.6 °F 53.6 °F 100% 29.90 in 10.0 mi Calm Calm - N/A   Clear
6:55 AM 54.7 °F 54.7 °F 100% 29.91 in 10.0 mi Calm Calm - N/A   Clear
7:15 AM 57.4 °F 53.6 °F 87% 29.92 in 10.0 mi Calm Calm - N/A   Clear
7:35 AM 61.0 °F 52.2 °F 73% 29.92 in 10.0 mi West 4.6 mph - N/A   Clear
7:55 AM 62.4 °F 52.9 °F 71% 29.92 in 10.0 mi West 4.6 mph - N/A   Clear
8:15 AM 63.7 °F 53.1 °F 68% 29.93 in 10.0 mi NW 3.5 mph - N/A   Clear
8:35 AM 65.7 °F 53.2 °F 64% 29.94 in 10.0 mi WNW 3.5 mph - N/A   Clear
8:55 AM 68.0 °F 53.4 °F 60% 29.94 in 10.0 mi Calm Calm - N/A   Clear
9:15 AM 69.8 °F 52.7 °F 54% 29.94 in 10.0 mi Calm Calm - N/A   Clear
9:35 AM 72.3 °F 52.3 °F 49% 29.94 in 10.0 mi NE 3.5 mph - N/A   Clear
9:55 AM 73.8 °F 51.4 °F 45% 29.94 in 10.0 mi ESE 3.5 mph - N/A   Clear
10:15 AM 74.3 °F 51.6 °F 45% 29.94 in 10.0 mi NNE 3.5 mph - N/A   Clear
10:35 AM 75.6 °F 51.6 °F 43% 29.94 in 10.0 mi East 3.5 mph - N/A   Clear
10:55 AM 76.6 °F 49.8 °F 39% 29.93 in 10.0 mi NNE 5.8 mph - N/A   Clear
11:15 AM 77.4 °F 47.7 °F 35% 29.93 in 10.0 mi East 3.5 mph - N/A   Clear
11:35 AM 78.6 °F 48.2 °F 34% 29.92 in 10.0 mi North 4.6 mph - N/A   Clear
11:55 AM 79.7 °F 48.0 °F 33% 29.91 in 10.0 mi North 5.8 mph - N/A   Clear
12:15 PM 79.9 °F 46.9 °F 31% 29.91 in 10.0 mi North 4.6 mph - N/A   Clear
12:35 PM 81.0 °F 46.0 °F 29% 29.90 in 10.0 mi NNE 5.8 mph - N/A   Clear
12:55 PM 81.1 °F 46.4 °F 29% 29.88 in 10.0 mi North 4.6 mph - N/A   Clear
1:15 PM 81.3 °F 46.4 °F 29% 29.88 in 10.0 mi NE 8.1 mph - N/A   Clear
1:35 PM 81.9 °F 46.2 °F 29% 29.87 in 10.0 mi NE 5.8 mph - N/A   Clear
1:55 PM 82.6 °F 46.6 °F 28% 29.85 in 10.0 mi North 5.8 mph - N/A   Clear
2:15 PM 83.5 °F 44.4 °F 25% 29.85 in 10.0 mi East 5.8 mph - N/A   Clear
2:35 PM 83.1 °F 46.6 °F 28% 29.84 in 10.0 mi ENE 5.8 mph - N/A   Clear
2:55 PM 83.1 °F 44.2 °F 25% 29.83 in 10.0 mi ENE 4.6 mph - N/A   Clear
3:15 PM 83.3 °F 45.1 °F 26% 29.82 in 10.0 mi ENE 8.1 mph - N/A   Clear
3:35 PM 83.1 °F 45.1 °F 26% 29.82 in 10.0 mi NNE 4.6 mph - N/A   Clear
3:55 PM 83.5 °F 44.8 °F 26% 29.81 in 10.0 mi NNE 6.9 mph - N/A   Clear
4:15 PM 83.3 °F 45.0 °F 26% 29.81 in 10.0 mi ENE 6.9 mph - N/A   Clear
4:35 PM 82.9 °F 44.8 °F 26% 29.80 in 10.0 mi NNE 4.6 mph - N/A   Clear
4:55 PM 82.4 °F 43.9 °F 26% 29.80 in 10.0 mi NE 3.5 mph - N/A   Clear
5:15 PM 82.0 °F 42.4 °F 25% 29.80 in 10.0 mi ENE 3.5 mph - N/A   Clear
5:35 PM 81.1 °F 43.0 °F 26% 29.81 in 10.0 mi NE 5.8 mph - N/A   Clear
5:55 PM 80.1 °F 44.1 °F 28% 29.81 in 10.0 mi Calm Calm - N/A   Clear
6:15 PM 78.8 °F 44.8 °F 30% 29.81 in 10.0 mi Calm Calm - N/A   Clear
6:35 PM 74.7 °F 47.5 °F 38% 29.81 in 10.0 mi Calm Calm - N/A   Clear
6:55 PM 71.8 °F 48.0 °F 43% 29.81 in 10.0 mi East 3.5 mph - N/A   Clear
7:15 PM 70.7 °F 48.4 °F 45% 29.81 in 10.0 mi Calm Calm - N/A   Clear
7:35 PM 69.8 °F 49.8 °F 49% 29.81 in 10.0 mi Calm Calm - N/A   Clear
7:55 PM 68.4 °F 50.7 °F 53% 29.82 in 10.0 mi SE 3.5 mph - N/A   Clear
8:15 PM 67.1 °F 51.8 °F 58% 29.82 in 10.0 mi Calm Calm - N/A   Clear
8:35 PM 66.2 °F 52.0 °F 60% 29.83 in 10.0 mi SE 3.5 mph - N/A   Clear
8:55 PM 66.6 °F 50.9 °F 57% 29.83 in 10.0 mi SSE 3.5 mph - N/A   Clear
9:15 PM 65.5 °F 51.6 °F 61% 29.83 in 10.0 mi SSE 3.5 mph - N/A   Clear
9:35 PM 65.3 °F 50.9 °F 60% 29.84 in 10.0 mi Calm Calm - N/A   Clear
9:55 PM 64.4 °F 51.6 °F 63% 29.83 in 10.0 mi SSE 3.5 mph - N/A   Clear
10:15 PM 64.4 °F 51.6 °F 63% 29.83 in 10.0 mi Calm Calm - N/A   Clear
10:35 PM 64.0 °F 50.5 °F 61% 29.83 in 10.0 mi SSE 3.5 mph - N/A   Clear
10:55 PM 63.9 °F 50.4 °F 61% 29.84 in 10.0 mi SSE 3.5 mph - N/A   Clear
11:15 PM 62.1 °F 51.4 °F 68% 29.84 in 10.0 mi SE 3.5 mph - N/A   Clear
11:35 PM 63.3 °F 50.5 °F 63% 29.83 in 10.0 mi SE 3.5 mph - N/A   Clear
11:55 PM 62.1 °F 51.4 °F 68% 29.83 in 10.0 mi SSE 3.5 mph - N/A   Clear